This is the latest recevied weather packets stored in our database for station/object EA7HQL-10. If no packets are shown the sender has not sent any weather packets the latest 10 day(s).
| Time | Temp. | Humidity | Pressure | Rain* | Wind** | Luminosity | Snow |
|---|---|---|---|---|---|---|---|
| 1778083250 | 23.89° C | 38% | 1007.1 hPa | 0 mm | - | - | - |
| 1778082965 | 23.89° C | 35% | 1007.1 hPa | 0 mm | - | - | - |
| 1778082670 | 23.33° C | 36% | 1006.9 hPa | 0 mm | - | - | - |
| 1778082415 | 23.33° C | 36% | 1007.1 hPa | 0 mm | - | - | - |
| 1778082127 | 23.33° C | 34% | 1007 hPa | 0 mm | - | - | - |
| 1778081885 | 23.33° C | 37% | 1007 hPa | 0 mm | - | - | - |
| 1778081590 | 23.89° C | 41% | 1007.1 hPa | 0 mm | - | - | - |
| 1778081325 | 23.33° C | 36% | 1007.2 hPa | 0 mm | - | - | - |
| 1778081065 | 23.33° C | 37% | 1007.1 hPa | 0 mm | - | - | - |
| 1778080785 | 23.33° C | 38% | 1007.2 hPa | 0 mm | - | - | - |
| 1778080500 | 23.33° C | 34% | 1007.2 hPa | 0 mm | - | - | - |
| 1778080220 | 22.78° C | 36% | 1007.4 hPa | 0 mm | - | - | - |
| 1778079980 | 22.78° C | 40% | 1007.4 hPa | 0 mm | - | - | - |
| 1778079706 | 22.22° C | 44% | 1007.5 hPa | 0 mm | - | - | - |
| 1778079460 | 22.22° C | 44% | 1007.4 hPa | 0 mm | - | - | - |
| 1778079175 | 22.22° C | 41% | 1007.4 hPa | 0 mm | - | - | - |
| 1778078930 | 22.22° C | 42% | 1007.6 hPa | 0 mm | - | - | - |
| 1778078675 | 22.22° C | 42% | 1007.7 hPa | 0 mm | - | - | - |
| 1778078375 | 22.78° C | 45% | 1007.6 hPa | 0 mm | - | - | - |
| 1778078087 | 22.78° C | 42% | 1007.9 hPa | 0 mm | - | - | - |
| 1778077805 | 22.78° C | 45% | 1007.8 hPa | 0 mm | - | - | - |
| 1778077515 | 23.33° C | 40% | 1007.7 hPa | 0 mm | - | - | - |
| 1778077255 | 23.89° C | 41% | 1008.1 hPa | 0 mm | - | - | - |
| 1778077020 | 23.89° C | 41% | 1007.9 hPa | 0 mm | - | - | - |
| 1778076773 | 22.78° C | 42% | 1007.8 hPa | 0 mm | - | - | - |
* Rain latest hour (hover to see other rain measurements)
** Current wind speed in m/s (hover to see current wind gust speed)